Temp
12 13 14 13 12 12 13 13 13 12 11 10 9 8 10 11 8 8 8 8 7 7 10 10 11 10 9 9 8 8 7 6 5 5 5 5 5 6 5 6 6 7 8 8
13 15 12 12 12 13 13 13 13 11 11 10 9 10 10 10 10 9 10 9 8 9 9 9 9 9 9 8 8 7 6 5 5 4 4 3 3 5 5 6 6 7 7 8
14 12 11 12 11 13 12 13 12 12 9 9 8 12 13 14 11 12 11 10 10 9 9 10 9 9 8 7 7 6 6 5 4 4 4 4 4 5 5 6 7 7 7 7
11 11 12 12 12 11 15 10 10 10 10 13 9 14 14 12 11 13 12 10 8 8 8 9 8 8 7 7 6 6 5 5 4 4 3 3 2 2 4 5 6 6 7 7
12 11 11 13 12 10 12 10 10 10 10 9 11 10 13 12 16 16 13 11 9 7 7 7 8 8 7 7 6 5 5 4 4 3 3 3 3 3 3 4 5 6 7 8
9 9 9 10 9 10 9 10 8 7 8 7 11 10 13 14 16 14 13 10 10 8 8 7 8 7 6 6 5 5 4 4 3 3 3 3 3 2 3 4 4 5 7 8
10 10 9 9 10 10 10 10 8 11 8 11 9 9 13 14 13 12 12 10 9 7 7 6 6 5 5 5 5 4 4 3 3 3 3 2 3 3 3 3 4 4 6 6
11 12 9 8 9 11 10 11 9 12 11 10 9 12 16 12 11 9 9 9 8 8 6 6 6 6 5 5 4 4 4 3 3 3 3 3 3 3 3 3 3 4 4 5
10 11 8 7 8 8 10 9 9 5 -0 6 11 12 12 13 12 11 10 10 9 8 7 8 6 5 5 4 4 4 3 3 3 3 3 3 2 3 2 3 4 4 5 5
10 10 6 7 8 8 9 8 10 6 13 12 10 11 14 16 16 14 12 11 9 8 8 6 4 4 5 4 4 3 3 3 2 3 3 3 3 2 2 3 3 3 5 5
6 10 7 7 6 8 7 7 8 9 8 9 8 14 9 13 13 14 12 10 9 8 6 5 4 4 4 4 3 3 3 3 3 3 3 3 3 2 2 2 3 4 5 6
9 9 7 7 6 6 7 10 9 9 9 4 6 11 13 10 12 11 10 9 8 8 6 4 4 3 3 4 3 3 3 2 3 3 3 2 2 2 2 2 3 4 5 6
9 8 7 9 7 6 7 8 9 7 6 5 8 11 10 9 10 9 9 9 8 7 6 3 2 2 3 3 3 3 2 2 3 4 3 3 3 2 2 2 3 4 5 6
10 4 11 14 14 8 6 6 8 8 5 7 7 10 12 9 8 9 8 6 5 4 4 3 2 1 3 3 3 3 2 2 3 4 3 3 3 2 2 2 3 4 4 5
10 10 3 3 7 11 10 6 6 6 9 10 12 8 14 9 8 7 6 7 5 4 1 1 -0 -1 2 2 3 2 3 2 3 3 3 3 3 3 3 4 4 4 5 5
8 7 4 6 2 4 7 7 5 6 4 6 7 10 14 13 10 6 7 6 6 6 3 1 0 0 1 3 3 3 3 3 3 3 3 3 3 3 3 3 4 5 5 5
8 6 7 8 2 4 9 10 7 6 6 9 9 14 13 11 11 9 9 8 7 7 6 4 2 1 3 4 5 3 3 3 3 3 3 3 3 3 3 4 4 4 5 5
7 7 6 5 4 11 12 9 9 9 9 7 9 10 11 10 9 8 7 7 7 7 7 5 2 3 4 5 5 4 3 3 3 3 3 3 2 3 3 4 4 6 5 5
6 9 7 8 5 10 14 8 8 10 13 9 10 12 10 10 9 10 8 8 6 5 6 6 6 6 5 6 5 4 3 3 3 3 3 3 3 2 2 3 3 5 5 5
7 8 9 6 11 10 12 11 8 11 12 12 8 9 9 9 13 12 11 7 6 6 7 6 6 6 6 5 5 4 3 3 3 3 4 3 3 3 3 2 3 3 4 4
4 6 10 9 13 11 11 8 8 12 14 11 8 9 8 10 11 9 7 7 7 6 7 7 6 7 7 6 5 4 3 4 5 4 4 4 3 3 3 3 3 3 3 3
8 10 11 10 13 14 7 8 13 13 11 10 9 9 8 8 8 8 7 8 7 6 5 5 5 6 6 6 6 5 4 7 5 4 4 4 4 4 3 3 3 3 3 3
11 12 12 13 13 11 8 12 9 9 11 11 10 9 10 10 11 10 8 7 6 5 5 5 5 5 5 6 6 6 8 6 5 5 5 5 4 4 4 4 4 4 4 4
5 5 7 11 9 9 7 8 9 8 11 10 10 9 8 11 10 10 7 6 5 5 4 5 5 4 5 5 6 8 8 6 6 5 5 4 4 4 4 3 3 3 2 3
5 6 4 5 8 9 8 6 8 7 8 9 8 9 9 10 9 9 7 6 5 5 5 5 5 5 6 6 6 7 6 6 6 5 5 5 5 4 4 4 3 3 3 3
3 4 10 13 9 11 12 10 6 7 7 7 6 7 7 8 7 7 5 4 4 4 5 5 6 6 7 7 7 6 6 6 6 5 5 5 5 5 4 4 4 4 4 4
Height
815 818 820 823 825 824 824 824 826 825 828 831 829 824 804 796 801 801 798 799 798 797 793 790 789 789 791 793 794 795 794 792 791 789 786 784 782 779 778 778 778 777 777 778
820 817 825 827 826 824 825 826 828 828 828 834 830 809 800 796 794 793 792 794 795 794 792 790 788 789 791 793 793 793 793 791 790 789 787 785 781 778 777 777 776 775 775 776
817 824 826 824 829 825 829 825 829 831 837 835 839 806 793 786 790 787 788 789 790 791 791 788 788 788 790 792 792 792 791 790 790 787 786 784 780 778 777 775 775 774 772 772
827 829 826 826 827 831 822 835 835 834 840 830 836 821 794 794 794 786 787 790 791 791 789 788 788 788 789 790 791 791 790 789 788 786 785 783 781 779 777 776 775 773 771 770
822 829 827 823 827 833 831 839 838 837 840 846 833 843 802 797 783 781 785 786 789 790 789 788 788 788 789 789 790 790 789 788 787 786 784 783 781 780 778 777 775 773 770 768
833 835 833 831 834 834 838 840 845 849 850 873 834 837 805 795 785 785 785 789 788 788 788 788 789 789 789 790 790 789 787 787 786 784 783 782 780 779 778 777 773 771 768 765
833 833 836 835 831 834 836 838 861 846 868 845 843 848 800 785 786 788 786 788 787 788 789 788 789 789 789 789 789 788 787 786 785 783 782 783 781 779 776 774 772 771 768 766
825 827 835 838 835 828 834 832 853 846 852 850 844 825 788 785 787 788 788 787 786 785 787 787 787 788 789 789 789 788 787 786 785 783 782 782 781 779 777 775 773 772 769 767
827 829 841 840 839 840 836 844 844 877 918 878 829 811 790 781 781 782 783 783 782 783 784 785 786 787 788 789 788 787 787 785 785 784 782 782 781 779 777 776 773 773 771 768
806 828 849 842 840 840 835 842 843 866 836 844 836 825 797 774 772 773 777 778 779 780 782 784 785 786 788 788 788 788 787 785 785 784 782 781 781 780 779 777 776 775 772 770
815 813 849 846 848 839 847 851 846 845 853 859 870 806 793 777 774 772 773 776 777 778 781 782 784 785 787 788 788 788 787 786 784 784 782 781 781 781 779 778 775 774 771 769
801 815 846 842 845 843 839 828 832 839 851 884 872 821 774 783 778 778 778 777 776 776 778 780 781 784 787 787 788 789 788 787 785 783 782 781 780 781 782 782 777 777 774 773
795 817 845 834 843 845 838 834 831 842 851 869 854 811 784 784 781 780 780 775 774 774 775 778 780 782 785 786 787 788 789 787 786 784 783 780 779 780 781 782 782 778 777 775
787 823 800 796 790 816 842 838 831 833 865 846 837 808 783 787 790 779 778 776 774 773 772 774 777 779 781 784 786 788 789 789 787 785 784 781 780 779 779 780 781 781 780 778
789 798 834 838 813 802 808 832 833 837 817 814 790 809 765 780 781 778 775 771 772 771 771 770 773 775 778 782 784 787 788 789 789 787 786 784 782 781 781 781 780 780 779 779
796 811 825 826 841 832 820 822 829 828 836 824 811 792 764 759 769 777 772 770 767 764 764 764 766 771 774 777 782 786 787 789 790 790 788 786 785 784 783 784 784 784 784 783
793 811 812 814 847 834 815 790 808 813 808 794 804 756 757 760 763 765 763 762 759 757 756 756 759 763 768 773 778 784 787 789 790 791 791 790 788 787 786 785 786 787 788 789
792 796 811 833 835 802 774 777 781 784 780 788 773 759 755 759 760 761 759 757 754 752 751 752 755 760 764 770 776 781 785 788 790 791 791 792 792 791 790 789 789 790 791 792
784 783 806 808 835 783 760 782 782 776 753 760 760 746 755 756 758 751 751 750 749 748 747 748 751 756 761 766 772 778 783 787 789 791 792 793 793 794 794 793 793 794 795 795
782 780 782 811 782 788 759 757 767 763 766 742 754 753 756 758 753 748 746 748 745 744 745 746 749 754 760 764 769 775 781 784 787 790 792 793 794 795 796 797 797 797 798 798
796 794 772 783 763 763 750 762 767 768 750 741 750 749 755 754 749 749 749 746 745 743 745 747 749 752 757 762 767 772 777 780 784 788 790 793 795 796 797 798 799 800 800 801
762 763 759 768 757 744 755 763 750 735 734 739 744 746 750 749 748 749 748 747 745 744 746 748 750 753 757 761 765 769 773 778 782 785 788 791 793 795 797 799 801 802 803 804
736 723 733 733 725 723 732 725 728 732 733 737 738 741 743 743 744 745 747 748 748 747 747 748 751 754 757 761 765 768 771 776 780 783 786 788 791 794 796 797 800 802 803 805
747 740 741 729 726 726 728 728 728 730 729 731 734 736 742 740 741 743 745 747 748 749 748 748 751 754 756 759 763 766 771 776 779 782 784 786 788 791 794 796 798 800 803 804
730 734 743 736 727 725 722 725 723 727 729 730 733 735 736 739 741 742 742 744 747 748 748 749 750 753 756 760 762 766 770 773 776 780 782 784 786 789 792 794 796 798 800 801
719 723 708 694 710 703 703 709 716 725 724 722 730 733 734 736 739 741 742 742 745 748 748 748 748 750 752 755 760 764 768 771 774 777 780 783 785 787 789 791 793 795 796 798
Wind_Speed
4 4 2 2 0 3 4 2 3 4 3 4 5 12 17 12 6 9 8 8 8 7 4 3 1 4 6 5 3 6 10 10 12 14 17 17 14 13 5 7 11 11 10 11
4 1 2 2 1 2 2 0 4 5 2 3 6 20 11 5 5 4 5 7 8 4 5 7 4 6 7 5 4 6 8 10 10 11 14 13 16 7 7 7 11 11 10 10
4 2 2 2 2 1 0 2 1 2 8 1 8 7 6 2 3 2 2 4 4 5 6 4 4 6 7 4 3 5 8 9 9 11 13 13 8 7 6 9 12 11 12 10
4 1 3 2 2 1 3 1 2 2 5 3 4 5 5 5 8 4 5 6 7 7 5 4 3 5 5 3 2 4 7 8 8 10 10 10 9 7 9 13 14 14 11 11
3 4 3 2 2 1 1 1 1 2 2 3 4 3 7 4 4 4 6 6 6 6 6 6 5 5 1 2 1 4 5 6 7 9 8 8 8 8 10 10 12 12 11 10
2 1 2 2 2 3 3 2 3 3 2 3 3 3 5 2 3 5 3 6 6 6 5 4 3 1 3 2 1 3 4 5 6 8 7 8 9 11 12 12 14 15 14 13
3 1 1 1 3 1 2 2 4 6 4 4 1 2 9 5 4 5 6 8 7 5 4 4 4 3 2 2 2 2 4 5 7 8 8 10 11 12 12 14 15 16 15 15
6 4 1 2 1 2 1 2 5 4 1 5 1 5 4 5 5 7 7 7 6 5 4 3 3 3 1 2 2 2 4 5 7 7 9 9 9 10 11 12 13 13 16 14
5 1 2 3 1 2 2 1 3 7 1 3 3 7 8 4 8 6 8 6 8 6 5 2 4 2 2 3 1 1 3 4 5 7 8 8 10 9 11 11 10 12 12 13
5 4 2 1 0 3 1 4 3 3 0 4 5 6 5 4 5 5 7 9 7 4 4 2 3 4 3 3 2 1 2 3 4 6 8 9 9 9 9 9 9 10 11 12
5 3 3 2 4 6 1 1 3 2 3 4 1 6 7 7 7 7 7 8 7 6 5 4 3 5 5 4 3 2 3 4 5 6 6 7 7 8 9 9 10 11 12 12
6 5 4 5 2 1 1 3 4 4 4 1 2 7 1 6 5 5 9 8 6 4 5 4 5 7 7 6 4 3 3 4 6 5 5 7 7 7 7 8 9 9 9 9
8 1 3 5 2 3 4 5 4 4 3 5 5 6 3 5 6 7 9 9 7 5 5 5 5 8 9 8 6 5 4 4 6 5 5 7 9 9 10 10 9 9 9 9
6 3 6 7 5 6 3 5 5 5 3 4 6 9 9 7 7 8 9 9 9 7 8 6 6 8 10 9 8 7 6 4 6 5 5 8 9 9 10 10 11 10 10 10
3 5 4 3 3 2 4 5 9 8 6 7 5 10 18 6 7 8 7 8 7 8 6 7 6 6 12 11 10 9 8 6 7 4 5 8 8 9 10 11 11 12 13 13
2 3 3 2 4 4 1 4 8 7 3 9 8 21 14 18 7 6 9 8 9 8 7 6 7 10 15 16 13 11 11 8 6 5 5 6 8 10 12 12 12 14 14 15
7 6 3 4 2 3 3 9 13 5 6 10 9 20 6 7 6 7 9 9 10 9 8 6 9 14 20 19 16 14 13 10 8 6 6 6 7 10 12 12 12 14 16 16
7 5 3 3 1 3 6 4 6 13 9 15 12 14 15 7 6 8 9 11 9 8 7 6 8 16 19 18 17 15 14 12 9 7 7 5 5 8 10 12 15 13 13 15
2 4 3 5 4 5 3 5 7 8 10 15 21 20 9 3 5 6 5 4 6 7 6 8 13 18 19 22 20 18 16 14 11 10 8 7 6 5 7 9 11 13 12 12
3 3 3 3 5 8 6 2 5 5 6 6 8 8 5 3 1 4 1 4 6 5 6 9 15 16 20 21 22 21 19 16 14 12 10 8 6 4 4 5 7 7 8 9
3 1 8 6 5 6 5 6 6 5 6 4 6 5 7 5 4 2 6 5 4 2 5 10 17 20 21 23 23 22 20 20 15 12 11 10 8 6 5 3 2 3 5 6
9 10 6 3 7 16 7 4 10 6 2 6 5 5 6 5 5 5 6 5 4 4 7 11 15 16 19 22 24 22 22 16 15 14 12 10 9 8 7 5 3 3 2 2
8 8 8 12 6 2 13 6 7 4 5 4 5 5 5 4 2 2 3 6 3 4 6 11 13 15 18 21 23 22 20 17 16 15 14 12 10 9 8 8 6 6 5 4
5 2 4 4 5 6 9 5 3 6 5 5 5 7 5 4 4 1 1 3 2 2 5 9 13 15 18 21 23 22 16 16 16 16 15 14 13 12 11 9 9 8 8 8
5 11 7 4 3 3 8 9 5 8 4 5 5 5 6 4 4 2 2 0 3 4 6 10 14 15 15 18 22 21 19 16 18 17 17 17 15 14 12 11 11 10 9 8
5 7 8 9 9 6 5 7 8 9 11 13 8 5 5 4 5 3 2 3 1 4 6 10 13 14 15 16 19 20 21 19 16 18 19 19 18 17 16 15 14 13 12 11
Wind_Direction
1 72 223 187 135 124 130 161 262 273 48 325 252 277 283 285 241 260 266 264 270 270 274 298 202 181 206 234 281 316 319 328 334 338 342 341 336 334 335 296 299 296 286 281
27 179 160 130 67 109 100 148 291 282 41 2 329 296 281 292 268 236 252 253 254 258 282 250 224 216 228 244 278 312 328 334 339 343 342 331 325 335 333 324 318 311 293 288
156 163 155 142 51 111 178 198 190 223 326 197 311 295 343 315 326 304 226 246 252 242 267 277 242 242 234 239 276 322 334 344 345 350 344 348 351 4 349 347 335 323 305 300
94 206 170 119 111 117 253 163 112 43 28 291 6 278 314 338 314 295 289 262 260 268 274 275 266 256 231 231 280 326 344 354 347 353 356 0 3 346 336 343 335 333 326 318
205 166 167 136 129 91 285 344 65 80 58 346 351 71 272 354 317 303 339 324 277 262 251 273 282 273 163 194 278 340 355 352 354 1 3 355 350 342 334 343 343 346 341 329
91 330 17 107 112 99 142 119 43 56 66 25 282 115 287 242 237 307 327 325 306 299 292 281 354 106 129 195 303 348 358 8 2 12 5 351 349 347 342 350 358 3 357 354
4 47 10 45 104 58 130 56 344 358 12 219 350 352 246 256 253 237 280 299 303 309 319 319 303 270 196 213 309 4 10 13 13 17 13 3 358 351 345 353 355 2 351 355
147 297 161 9 2 167 161 160 146 214 275 276 66 241 244 213 271 257 260 265 287 298 293 278 276 252 201 189 288 8 33 18 13 21 20 15 358 354 348 351 347 357 346 346
134 318 318 49 21 72 209 64 139 103 53 38 263 283 302 269 275 268 274 284 272 277 285 270 144 155 198 183 272 22 55 42 18 27 20 16 7 358 356 352 348 347 346 353
190 86 312 358 113 33 55 149 77 9 42 300 293 285 243 254 239 263 268 264 277 269 258 259 154 171 199 194 201 160 95 76 49 37 26 17 17 2 1 359 355 354 350 359
136 105 288 18 209 176 104 34 51 109 125 173 277 274 216 220 211 226 254 269 269 265 244 240 197 168 192 203 189 187 136 115 77 45 35 29 22 22 8 8 360 8 9 11
190 121 135 210 256 324 313 210 168 128 241 69 139 272 275 247 278 283 277 280 276 242 230 204 194 170 186 203 195 199 168 126 102 68 32 29 34 31 32 35 14 26 20 19
180 283 72 350 11 359 224 197 150 103 81 204 143 263 347 298 282 265 268 278 278 262 241 188 186 186 194 201 200 194 188 140 113 86 54 42 33 34 37 42 38 34 42 37
103 102 158 184 180 127 174 198 174 140 128 191 224 274 291 270 270 278 279 271 278 268 245 211 198 199 196 198 200 194 183 162 124 113 80 62 51 37 42 44 49 50 44 47
145 178 109 314 28 132 161 166 176 191 193 180 250 228 262 250 230 253 257 278 285 280 259 224 198 189 189 188 195 193 184 176 151 138 93 78 75 71 64 62 55 54 52 49
181 170 121 3 5 42 271 197 194 227 251 271 279 277 269 271 242 277 271 278 280 275 264 232 199 183 189 186 189 193 186 176 171 153 110 88 89 88 82 78 75 76 67 65
149 140 116 239 17 86 334 226 192 195 213 206 218 248 277 258 237 255 270 261 264 264 271 229 203 191 188 185 184 192 188 177 178 168 140 108 100 98 95 93 89 81 80 81
149 124 93 151 32 269 229 140 172 203 237 212 258 260 255 262 249 259 251 264 270 252 254 230 190 190 183 178 183 181 186 185 179 179 163 150 116 106 110 109 103 100 96 91
70 146 123 146 208 313 271 199 170 171 271 204 225 252 270 258 323 289 217 231 264 249 234 223 188 183 177 173 177 179 181 186 185 186 185 172 156 131 121 118 117 120 119 115
107 80 125 132 196 212 236 156 155 147 290 213 187 238 226 132 125 260 249 300 306 253 197 180 171 172 173 173 174 176 184 188 196 191 187 184 177 169 150 133 129 133 130 124
126 63 198 184 226 270 228 150 175 101 236 149 177 201 153 179 215 292 313 313 311 254 174 168 169 172 177 175 177 181 187 198 192 188 186 186 185 179 173 164 137 142 137 141
159 162 193 171 219 245 139 94 177 207 111 154 181 183 183 229 302 305 300 314 358 157 148 169 171 174 178 182 183 186 198 196 191 191 190 189 191 192 192 190 188 191 204 213
202 197 187 191 211 164 185 200 188 173 140 190 171 166 185 186 196 13 329 300 316 187 167 175 181 175 183 190 195 195 206 196 198 201 200 197 198 204 207 211 223 228 231 244
251 221 180 111 202 208 202 245 223 180 178 183 183 166 190 202 152 134 42 318 275 203 177 178 177 185 193 198 203 211 208 205 207 212 213 211 210 212 215 219 219 227 245 254
178 152 168 280 282 329 267 224 206 193 200 196 210 188 195 192 236 205 152 151 256 227 198 193 193 201 213 212 213 212 213 213 215 221 225 225 226 227 232 239 246 253 260 264
185 166 184 218 195 182 206 210 174 184 209 212 184 217 223 222 221 194 161 113 104 252 216 207 211 217 215 214 220 216 215 218 221 226 230 232 232 233 236 242 250 257 260 265